Data for 10/28/2017

Time Sea-Level Adjusted Pressure Absolute Pressure Temperature Relative Humidity Dew Point   
(mb) (inHg) (mb) (inHg) (C) (F) (%) (C) (F)
00:05 1025 30.27 854 25.22 3.7 38.6 76 -0.2 31.6
00:10 1025 30.27 854 25.22 3.8 38.9 74 -0.4 31.3
00:15 1025 30.27 854 25.22 4 39.1 74 -0.2 31.6
00:20 1025 30.27 854 25.22 4 39.2 74 -0.2 31.7
00:25 1025 30.27 854 25.22 4.1 39.4 74 -0.2 31.6
00:30 1025 30.27 854 25.22 4.1 39.3 74 -0.2 31.7
00:35 1025 30.27 854 25.22 4 39.2 74 -0.3 31.5
00:40 1025 30.27 854 25.22 3.9 39 73 -0.6 31
00:45 1025 30.27 854 25.22 4.1 39.3 71 -0.6 30.9
00:50 1025 30.27 854 25.22 4.2 39.5 70 -0.7 30.7
00:55 1025 30.27 854 25.22 4.3 39.8 71 -0.4 31.3
01:00 1025 30.27 854 25.22 4.2 39.6 71 -0.5 31.1
01:05 1025 30.27 854 25.22 4.2 39.6 72 -0.4 31.3
01:10 1025 30.27 854 25.22 3.9 39.1 73 -0.4 31.3
01:15 1025 30.27 854 25.22 4 39.1 72 -0.7 30.8
01:20 1025 30.27 854 25.22 3.9 39.1 72 -0.6 31
01:25 1025 30.27 854 25.22 3.8 38.8 72 -0.9 30.5
01:30 1025 30.27 854 25.22 4 39.3 71 -0.8 30.5
01:35 1025 30.27 854 25.22 4.1 39.3 71 -0.7 30.8
01:40 1025 30.27 854 25.22 3.7 38.7 73 -0.7 30.8
01:45 1025 30.27 854 25.22 3.5 38.3 74 -0.7 30.7
01:50 1025 30.27 854 25.22 3.3 37.9 76 -0.6 31
01:55 1025 30.27 854 25.22 3.1 37.5 76 -0.7 30.8
02:00 1025 30.27 854 25.22 3.1 37.6 76 -0.8 30.6
02:05 1025 30.27 854 25.22 3.2 37.7 76 -0.6 30.9
02:10 1025 30.27 854 25.22 2.9 37.2 77 -0.7 30.8
02:15 1025 30.27 854 25.22 2.8 37 78 -0.7 30.7
02:20 1025 30.27 854 25.22 3.1 37.5 76 -0.8 30.5
02:25 1025 30.27 854 25.22 2.7 36.9 78 -0.8 30.6
02:30 1025 30.27 854 25.22 2.7 36.8 76 -1.1 30
02:35 1025 30.27 854 25.22 3 37.3 75 -1.1 30
02:40 1025 30.27 854 25.22 3.3 38 73 -1.1 30
02:45 1025 30.27 854 25.22 3.8 38.8 71 -1 30.2
02:50 1025 30.27 854 25.22 3.9 39 71 -1 30.2
02:55 1025 30.27 854 25.22 3.7 38.6 72 -1 30.3
03:00 1025 30.27 854 25.22 3.4 38.2 72 -1.1 29.9
03:05 1025 30.27 854 25.22 3.1 37.6 74 -1.2 29.9
03:10 1025 30.27 854 25.22 3 37.4 75 -1.1 30.1
03:15 1025 30.27 854 25.22 3.1 37.6 74 -1 30.2
03:20 1025 30.27 854 25.22 3.3 37.9 72 -1.2 29.8
03:25 1025 30.27 854 25.22 3.6 38.5 71 -1.2 29.8
03:30 1025 30.27 854 25.22 3.8 38.8 71 -1 30.1
03:35 1025 30.27 854 25.22 3.5 38.3 72 -1.1 30.1
03:40 1025 30.27 854 25.22 2.6 36.6 76 -1.2 29.9
03:45 1025 30.27 854 25.22 2.9 37.3 75 -1.2 29.9
03:50 1025 30.27 854 25.22 3.5 38.2 73 -1 30.2
03:55 1025 30.27 854 25.22 3.6 38.4 72 -1 30.2
04:00 1025 30.27 854 25.22 3.6 38.4 72 -1.1 30.1
04:05 1025 30.27 854 25.22 3.6 38.4 72 -1.1 30
04:10 1025 30.27 854 25.22 3.4 38.1 73 -1 30.2
04:15 1025 30.27 854 25.22 3.3 37.9 73 -1.2 29.9
04:20 1025 30.27 854 25.22 3.1 37.6 74 -1.2 29.9
04:25 1025 30.27 854 25.22 3 37.3 75 -1.1 30.1
04:30 1025 30.27 854 25.22 2.8 37.1 75 -1.1 30
04:35 1025 30.27 854 25.22 2.8 37 75 -1.3 29.7
04:40 1025 30.27 854 25.22 2.7 36.9 75 -1.3 29.7
04:45 1025 30.27 854 25.22 3.2 37.8 72 -1.3 29.7
04:50 1025 30.27 854 25.22 3.6 38.5 71 -1.2 29.9
04:55 1025 30.27 854 25.22 3.4 38.2 73 -1 30.2
05:00 1025 30.27 854 25.22 3.1 37.6 74 -1.2 29.9
05:05 1025 30.27 854 25.22 3.2 37.7 73 -1.2 29.9
05:10 1025 30.27 854 25.22 3.1 37.6 74 -1.1 30
05:15 1025 30.27 854 25.22 3 37.4 75 -1.1 30
05:20 1025 30.27 854 25.22 3.1 37.5 74 -1.2 29.9
05:25 1025 30.27 854 25.22 3.6 38.4 69 -1.6 29.1
05:30 1025 30.27 854 25.22 4 39.2 69 -1.1 30
05:35 1025 30.27 854 25.22 3.5 38.3 71 -1.2 29.8
05:40 1025 30.27 854 25.22 3.4 38 71 -1.4 29.6
05:45 1025 30.27 854 25.22 3.3 38 71 -1.4 29.5
05:50 1025 30.27 854 25.22 3.3 38 72 -1.3 29.7
05:55 1025 30.27 854 25.22 4 39.1 69 -1.2 29.9
06:00 1025 30.27 854 25.22 3.7 38.6 69 -1.5 29.4
06:05 1025 30.27 854 25.22 3.8 38.9 70 -1.1 30.1
06:10 1025 30.27 854 25.22 3.6 38.5 72 -1 30.2
06:15 1025 30.27 854 25.22 3.2 37.8 73 -1.2 29.9
06:20 1025 30.27 854 25.22 3.1 37.6 73 -1.2 29.8
06:25 1025 30.27 854 25.22 3 37.3 73 -1.4 29.6
06:30 1025 30.27 854 25.22 2.9 37.2 72 -1.6 29.2
06:35 1025 30.27 854 25.22 3.4 38.2 70 -1.6 29.1
06:40 1025 30.27 854 25.22 3.4 38 69 -1.7 28.9
06:45 1025 30.27 854 25.22 3.1 37.5 71 -1.7 28.9
06:50 1025 30.27 854 25.22 2.6 36.7 73 -1.7 29
06:55 1025 30.27 854 25.22 2.5 36.4 74 -1.7 29
07:00 1025 30.27 854 25.22 2.6 36.7 74 -1.6 29.1
07:05 1025 30.27 854 25.22 2.8 37 73 -1.6 29.1
07:10 1025 30.27 854 25.22 2.9 37.2 73 -1.5 29.3
07:15 1025 30.27 854 25.22 2.9 37.2 73 -1.5 29.3
07:20 1025 30.27 854 25.22 2.7 36.8 74 -1.5 29.3
07:25 1025 30.27 854 25.22 2.9 37.2 72 -1.7 28.9
07:30 1025 30.27 854 25.22 2.7 36.9 72 -1.8 28.7
07:35 1025 30.27 854 25.22 2.6 36.7 73 -1.8 28.8
07:40 1025 30.27 854 25.22 2.4 36.3 74 -1.8 28.7
07:45 1025 30.27 854 25.22 2.4 36.4 72 -2 28.4
07:50 1025 30.27 854 25.22 2.6 36.6 72 -1.9 28.5
07:55 1025 30.27 854 25.22 2.7 36.9 73 -1.7 28.9
08:00 1025 30.27 854 25.22 2.9 37.1 71 -1.8 28.8
08:05 1025 30.27 854 25.22 2.9 37.2 70 -2 28.4
08:10 1025 30.27 854 25.22 2.9 37.3 69 -2.1 28.2
08:15 1025 30.27 854 25.22 3 37.4 69 -2.1 28.2
08:20 1025 30.27 854 25.22 3.2 37.7 69 -2 28.5
08:25 1025 30.27 854 25.22 3.1 37.6 69 -1.9 28.5
08:30 1025 30.27 854 25.22 3.1 37.6 71 -1.7 28.9
08:35 1025 30.27 854 25.22 3.3 37.9 69 -1.9 28.6
08:40 1025 30.27 854 25.22 3.4 38.1 70 -1.6 29.1
08:45 1025 30.27 854 25.22 3.4 38.2 69 -1.7 29
08:50 1025 30.27 854 25.22 3.7 38.6 68 -1.7 28.9
08:55 1025 30.27 854 25.22 3.6 38.6 68 -1.6 29.1
09:00 1025 30.27 854 25.22 3.9 39.1 67 -1.6 29.1
09:05 1025 30.27 854 25.22 4.2 39.5 67 -1.5 29.3
09:10 1025 30.27 854 25.22 4.4 39.9 65 -1.6 29.1
09:15 1025 30.27 854 25.22 4.8 40.6 65 -1.3 29.7
09:20 1025 30.27 854 25.22 5.1 41.2 64 -1.2 29.8
09:25 1025 30.27 854 25.22 5.4 41.7 63 -1.1 29.9
09:30 1025 30.27 854 25.22 5.3 41.5 64 -1 30.3
09:35 1025 30.27 854 25.22 5.4 41.7 63 -1 30.2
09:40 1025 30.27 854 25.22 5.7 42.3 63 -0.9 30.5
09:45 1025 30.27 854 25.22 6.3 43.3 60 -0.9 30.4
09:50 1025 30.27 854 25.22 7 44.6 57 -0.8 30.5
09:55 1025 30.27 854 25.22 7.7 45.8 56 -0.4 31.3
10:00 1025 30.27 854 25.22 8.3 47 55 -0.2 31.7
10:05 1025 30.27 854 25.22 8.4 47 55 -0.2 31.7
10:10 1025 30.27 854 25.22 8.6 47.4 55 0.1 32.1
10:15 1025 30.27 854 25.22 8.9 47.9 53 -0.2 31.7
10:20 1025 30.27 854 25.22 8.8 47.9 52 -0.4 31.3
10:25 1025 30.27 854 25.22 8.8 47.8 54 0 32.1
10:30 1025 30.27 854 25.22 8.6 47.4 53 -0.5 31.1
10:35 1025 30.27 854 25.22 9.2 48.5 50 -0.7 30.7
10:40 1025 30.27 854 25.22 9.6 49.3 49 -0.5 31.2
10:45 1024 30.24 854 25.22 9.6 49.3 50 -0.3 31.5
10:50 1024 30.24 854 25.22 9.8 49.6 49 -0.3 31.5
10:55 1024 30.24 854 25.22 10.1 50.2 45 -1.3 29.6
11:00 1024 30.24 854 25.22 10.5 50.9 45 -0.8 30.5
11:05 1024 30.24 854 25.22 11.1 52 42 -1.1 30
11:10 1024 30.24 854 25.22 11.5 52.6 42 -1 30.3
11:15 1024 30.24 854 25.22 11.4 52.6 43 -0.6 30.8
11:20 1024 30.24 854 25.22 11.4 52.5 42 -0.9 30.4
11:25 1024 30.24 853 25.19 10.8 51.4 46 -0.4 31.2
11:30 1024 30.24 853 25.19 10.7 51.3 44 -1 30.3
11:35 1024 30.24 853 25.19 10.6 51 45 -0.9 30.5
11:40 1024 30.24 853 25.19 10.8 51.4 44 -0.9 30.4
11:45 1024 30.24 853 25.19 11.1 51.9 43 -0.9 30.4
11:50 1024 30.24 853 25.19 11.4 52.6 43 -0.5 31.1
11:55 1024 30.24 853 25.19 12.1 53.7 42 -0.4 31.3
12:00 1024 30.24 853 25.19 12.4 54.2 43 0 32.1
12:05 1024 30.24 853 25.19 12.3 54.1 42 -0.2 31.6
12:10 1024 30.24 853 25.19 12.2 54 43 0.1 32.1
12:15 1024 30.24 853 25.19 12.5 54.5 42 0 32
12:20 1024 30.24 853 25.19 12.7 54.8 42 0.2 32.4
12:25 1024 30.24 853 25.19 12.7 54.8 43 0.4 32.7
12:30 1024 30.24 853 25.19 12.5 54.5 43 0.4 32.7
12:35 1024 30.24 853 25.19 12.8 55 42 0.3 32.5
12:40 1024 30.24 853 25.19 12.7 54.9 43 0.5 32.9
12:45 1024 30.24 853 25.19 12.8 55 43 0.7 33.3
12:50 1023 30.21 853 25.19 12.8 55 44 0.7 33.3
12:55 1023 30.21 853 25.19 12.7 54.9 43 0.5 32.9
13:00 1023 30.21 852 25.16 12.9 55.2 44 0.9 33.6
13:05 1023 30.21 852 25.16 13.3 55.9 42 0.9 33.6
13:10 1023 30.21 852 25.16 13.4 56.2 41 0.6 33.1
13:15 1023 30.21 852 25.16 13.8 56.8 40 0.6 33.1
13:20 1023 30.21 852 25.16 13.9 56.9 40 0.5 32.8
13:25 1023 30.21 852 25.16 13.9 57.1 39 0.1 32.2
13:30 1023 30.21 852 25.16 14.4 58 37 0.1 32.2
13:35 1023 30.21 852 25.16 14.8 58.6 35 -0.3 31.4
13:40 1023 30.21 852 25.16 15.1 59.2 36 0.2 32.4
13:45 1022 30.18 852 25.16 15.4 59.8 33 -0.6 30.9
13:50 1022 30.18 852 25.16 15.3 59.5 35 -0.1 31.8
13:55 1022 30.18 852 25.16 15.3 59.5 35 0.2 32.3
14:00 1022 30.18 851 25.13 15.4 59.6 34 -0.2 31.6
14:05 1022 30.18 851 25.13 15.7 60.3 33 -0.3 31.4
14:10 1022 30.18 851 25.13 16 60.8 33 -0.2 31.6
14:15 1022 30.18 851 25.13 16.1 60.9 33 -0.2 31.7
14:20 1022 30.18 851 25.13 15.6 60.2 33 -0.4 31.3
14:25 1022 30.18 851 25.13 15.1 59.1 33 -0.8 30.5
14:30 1022 30.18 851 25.13 15.9 60.6 33 -0.3 31.4
14:35 1022 30.18 851 25.13 15.6 60.1 32 -0.8 30.6
14:40 1022 30.18 851 25.13 16.3 61.3 31 -0.6 30.8
14:45 1022 30.18 851 25.13 16.5 61.7 33 0.1 32.2
14:50 1022 30.18 851 25.13 15.5 59.9 33 -0.6 30.9
14:55 1022 30.18 851 25.13 16.2 61.1 31 -0.7 30.8
15:00 1021 30.15 851 25.13 16.8 62.3 29 -1.1 30.1
15:05 1021 30.15 851 25.13 17.3 63.2 28 -1.1 30
15:10 1021 30.15 850 25.1 17.4 63.3 28 -1.2 29.9
15:15 1021 30.15 850 25.1 16.5 61.7 29 -1.4 29.6
15:20 1021 30.15 850 25.1 16.6 61.9 29 -1.3 29.6
15:25 1021 30.15 850 25.1 16.8 62.3 28 -1.5 29.3
15:30 1021 30.15 850 25.1 17.6 63.6 27 -1.4 29.5
15:35 1021 30.15 850 25.1 17.4 63.4 29 -0.8 30.6
15:40 1021 30.15 850 25.1 17.2 63 28 -1.5 29.4
15:45 1021 30.15 850 25.1 17.7 63.8 27 -1.3 29.6
15:50 1021 30.15 850 25.1 17.6 63.7 27 -1.4 29.5
15:55 1021 30.15 850 25.1 17.9 64.2 26 -1.6 29.2
16:00 1020 30.12 850 25.1 18.1 64.5 26 -1.7 29
16:05 1020 30.12 850 25.1 18.1 64.6 26 -1.6 29.2
16:10 1020 30.12 850 25.1 18.2 64.7 26 -1.3 29.7
16:15 1020 30.12 849 25.07 18.2 64.7 27 -0.9 30.3
16:20 1020 30.12 849 25.07 16.8 62.2 30 -0.9 30.3
16:25 1020 30.12 850 25.1 16.2 61.2 30 -1.2 29.8
16:30 1020 30.12 849 25.07 16.5 61.6 28 -2.2 28.1
16:35 1020 30.12 849 25.07 16.8 62.2 28 -1.8 28.7
16:40 1020 30.12 849 25.07 16.9 62.4 27 -2.2 28.1
16:45 1020 30.12 849 25.07 17.4 63.2 26 -2.5 27.6
16:50 1020 30.12 849 25.07 17.1 62.8 26 -2.3 27.9
16:55 1020 30.12 849 25.07 17.1 62.8 26 -2.4 27.6
17:00 1020 30.12 849 25.07 16.9 62.3 27 -2.4 27.7
17:05 1020 30.12 849 25.07 16.6 61.9 27 -2.2 28
17:10 1020 30.12 849 25.07 16.3 61.3 28 -2.3 27.8
17:15 1020 30.12 849 25.07 16.8 62.2 26 -2.5 27.4
17:20 1020 30.12 849 25.07 16.5 61.7 26 -2.8 26.9
17:25 1020 30.12 849 25.07 16.3 61.3 27 -2.6 27.3
17:30 1020 30.12 849 25.07 16.5 61.6 26 -2.9 26.7
17:35 1020 30.12 849 25.07 16.4 61.4 26 -2.9 26.8
17:40 1020 30.12 849 25.07 16.2 61.2 26 -2.9 26.7
17:45 1019 30.09 849 25.07 16.4 61.5 26 -2.9 26.8
17:50 1019 30.09 849 25.07 16.6 61.9 26 -2.8 27
17:55 1019 30.09 849 25.07 16.9 62.3 25 -3 26.6
18:00 1019 30.09 849 25.07 16.8 62.3 26 -2.8 27
18:05 1019 30.09 848 25.04 16.6 61.9 27 -2.5 27.6
18:10 1019 30.09 848 25.04 15.4 59.7 43 2.9 37.3
18:15 1019 30.09 848 25.04 13.5 56.4 45 1.9 35.5
18:20 1019 30.09 848 25.04 12.9 55.1 46 1.7 35
18:25 1019 30.09 848 25.04 12.1 53.7 47 1.2 34.2
18:30 1019 30.09 848 25.04 11.6 52.8 48 0.9 33.7
18:35 1019 30.09 848 25.04 11.3 52.3 48 0.7 33.2
18:40 1019 30.09 848 25.04 11.1 52 48 0.5 32.9
18:45 1019 30.09 848 25.04 10.9 51.7 48 0.5 32.9
18:50 1019 30.09 848 25.04 10.8 51.4 49 0.5 33
18:55 1019 30.09 848 25.04 10.6 51 50 0.7 33.2
19:00 1019 30.09 848 25.04 10.4 50.6 50 0.5 32.9
19:05 1018 30.06 848 25.04 10.3 50.5 50 0.2 32.4
19:10 1018 30.06 848 25.04 10.4 50.7 48 0 32.1
19:15 1018 30.06 847 25.01 10.7 51.2 47 -0.2 31.6
19:20 1018 30.06 847 25.01 10.8 51.4 47 -0 32
19:25 1018 30.06 847 25.01 10.6 51 48 0.1 32.1
19:30 1018 30.06 847 25.01 10.2 50.3 51 0.6 33
19:35 1018 30.06 847 25.01 9.4 48.9 54 0.6 33
19:40 1018 30.06 847 25.01 9 48.3 54 0.3 32.5
19:45 1018 30.06 847 25.01 8.9 48.1 53 -0.2 31.7
19:50 1018 30.06 847 25.01 9.1 48.4 53 0.1 32.3
19:55 1018 30.06 847 25.01 8.9 47.9 53 -0.2 31.6
20:00 1018 30.06 847 25.01 8.9 48.1 50 -0.9 30.5
20:05 1018 30.06 847 25.01 9.5 49.1 51 -0 32
20:10 1018 30.06 847 25.01 9.1 48.5 53 0.1 32.3
20:15 1018 30.06 847 25.01 8.7 47.6 55 0.1 32.2
20:20 1018 30.06 847 25.01 8.4 47 55 -0.2 31.7
20:25 1018 30.06 847 25.01 8.3 46.9 54 -0.6 31
20:30 1018 30.06 847 25.01 8.3 46.9 54 -0.3 31.4
20:35 1018 30.06 847 25.01 8.2 46.7 54 -0.7 30.8
20:40 1018 30.06 847 25.01 8.1 46.6 54 -0.6 30.9
20:45 1018 30.06 847 25.01 7.8 46.1 55 -0.6 31
20:50 1018 30.06 847 25.01 7.4 45.4 56 -0.7 30.7
20:55 1017 30.03 847 25.01 7.3 45.2 56 -0.8 30.5
21:00 1017 30.03 847 25.01 7.4 45.3 55 -1 30.2
21:05 1017 30.03 847 25.01 7.6 45.7 54 -1.1 30.1
21:10 1017 30.03 847 25.01 7.5 45.5 54 -1.1 30.1
21:15 1017 30.03 847 25.01 7.4 45.3 54 -1.4 29.5
21:20 1017 30.03 847 25.01 8 46.5 50 -1.8 28.8
21:25 1017 30.03 846 24.98 8.5 47.4 47 -2 28.4
21:30 1017 30.03 847 25.01 8.6 47.5 49 -1.5 29.2
21:35 1017 30.03 846 24.98 8.2 46.8 49 -1.9 28.6
21:40 1017 30.03 846 24.98 8.3 46.9 49 -1.9 28.7
21:45 1017 30.03 846 24.98 8.2 46.7 50 -1.7 29
21:50 1017 30.03 846 24.98 7.9 46.2 51 -1.7 28.9
21:55 1017 30.03 846 24.98 7.7 45.8 51 -1.7 28.9
22:00 1017 30.03 846 24.98 7.6 45.6 51 -1.9 28.6
22:05 1017 30.03 846 24.98 7.5 45.6 51 -2 28.4
22:10 1017 30.03 846 24.98 7.5 45.4 51 -2 28.3
22:15 1017 30.03 846 24.98 7.6 45.6 51 -2 28.3
22:20 1017 30.03 846 24.98 7.7 45.8 49 -2.2 28
22:25 1017 30.03 846 24.98 7.8 46 50 -1.9 28.6
22:30 1017 30.03 846 24.98 7.7 45.9 50 -2.1 28.2
22:35 1017 30.03 846 24.98 7.8 46 51 -1.7 29
22:40 1017 30.03 846 24.98 7.6 45.8 51 -1.8 28.7
22:45 1017 30.03 846 24.98 7.5 45.4 51 -2 28.3
22:50 1017 30.03 846 24.98 7.5 45.4 50 -2.2 28.1
22:55 1017 30.03 846 24.98 7.2 45 51 -2.1 28.2
23:00 1017 30.03 846 24.98 7 44.6 53 -2 28.4
23:05 1017 30.03 846 24.98 6.6 43.8 54 -2 28.3
23:10 1017 30.03 846 24.98 6.5 43.7 52 -2.7 27.2
23:15 1017 30.03 846 24.98 7.3 45.2 49 -2.6 27.3
23:20 1017 30.03 846 24.98 7.8 46.1 49 -2.3 27.8
23:25 1017 30.03 846 24.98 8 46.4 49 -2.1 28.3
23:30 1017 30.03 846 24.98 8 46.4 46 -2.9 26.8
23:35 1017 30.03 846 24.98 8.2 46.8 47 -2.3 27.9
23:40 1017 30.03 846 24.98 8 46.4 48 -2.4 27.7
23:45 1017 30.03 846 24.98 8.1 46.6 48 -2.3 27.9
23:50 1017 30.03 846 24.98 7.8 46.1 50 -2 28.4
23:55 1017 30.03 846 24.98 7.5 45.4 52 -1.9 28.6
24:00 1017 30.03 846 24.98 7.1 44.8 52 -2.1 28.2